Regional Weather Roundup
Issued by NWS

Home | Current Version | Previous Version | Text Only | Print | Product List | Glossary Off
Versions: 1 2 3 4 5 6 7 8 9 10 11 12 13 14 15 16 17 18 19 20 21 22 23 24 25 26 27 28 29 30 31 32 33 34 35 36 37 38 39 40 41 42 43 44 45 46 47 48 49 50

000
ASUS45 KTFX 281204
RWRMT
MONTANA HOURLY WEATHER ROUNDUP
NATIONAL WEATHER SERVICE GREAT FALLS MT
504 AM MST FRI NOV 28 2014

NOTE: "FAIR" INDICATES FEW OR NO CLOUDS BELOW 12000 FEET WITH NO
SIGNIFICANT WEATHER AND/OR OBSTRUCTIONS TO VISIBILITY.

* THESE STATIONS ARE NOT UNDER NWS QUALITY CONTROL. THEY DO NOT
   REPORT WEATHER SUCH AS PRECIPITATION OR FOG.

MTZ001>007-043-281300-
WEST OF THE DIVIDE
CITY           SKY/WX    TMP DP  RH WIND       PRES   REMARKS
KALISPELL      CLOUDY    43  37  79 S9        29.58F
MISSOULA       MOCLDY    45  37  74 N6        29.72F
BUTTE          CLOUDY    45  27  49 SW5       29.77F
MULLAN PASS    CLOUDY    36  36 100 SW15G30   29.65F WCI  27
* ESSEX        N/A       43  36  76 E2G7       N/A
* LINCOLN      N/A       38  35  89 NW4        N/A
* LOOKOUT PASS N/A       43  37  79 SE15G26    N/A
* POLSON       N/A       45  37  74 S4G10      N/A
* RONAN APT    CLOUDY    46  37  71 SE9        N/A
* SEELEY LAKE  N/A       36  34  92 N/A        N/A
* THOMP F APT  CLOUDY    35  25  67 NE4G9      N/A
* YAAK HILL    N/A       51  34  52 S4         N/A
$$

MTZ008-052>055-281300-
SOUTHWEST MONTANA
CITY           SKY/WX    TMP DP  RH WIND       PRES   REMARKS
BOZEMAN        MOCLDY    50  27  41 W6        29.74F
DILLON         CLOUDY    46  25  44 SW17G24   29.79S
* W YELLOWSTON CLOUDY    35  26  70 N1G8       N/A
* ENNIS APT    MOCLDY   N/A N/A N/A N/A        N/A
* THREE FORKS  CLOUDY    52  52 100 S14G20     N/A
* BOULDER HILL N/A       42  23  47 S14G19     N/A
* MONIDA PASS  N/A       34  25  70 S21G26     N/A   WCI  22
* RAYNOLDS PAS N/A       38  17  42 SE9G16     N/A   WCI  32
* WHITEHALL    N/A       51  28  41 SW11G26    N/A
* WISE RIVER   N/A       44  27  51 NW11G24    N/A
$$

MTZ009>010-012-014-046-048-049-054-281300-
EAST SLOPES AND CENTRAL MONTANA
CITY           SKY/WX    TMP DP  RH WIND       PRES   REMARKS
CUT BANK       PTCLDY    39  34  82 W14       29.50F WCI  31
GREAT FALLS    CLOUDY    50  34  54 SW25G33   29.55F
HELENA         CLOUDY    45  32  60 NE6       29.69S
* DEARBORN     N/A       54  33  45 SW8G19     N/A
* EAST GLACIER N/A       40  35  82 W16G21     N/A   WCI  32
* MONARCH      N/A       46  22  39 SW21G30    N/A
* PENDROY      N/A       42  36  79 W19        N/A
* ROGERS PASS  N/A       41  33  73 SE11G19    N/A
* SAINT MARY   N/A       40  38  93 S4G15      N/A
* SWEET GRASS  N/A       23  23 100 N8G14      N/A   WCI  14
$$

MTZ011-013-016-021-035-040-045-047-050-051-281300-
NORTH CENTRAL MONTANA
CITY           SKY/WX    TMP DP  RH WIND       PRES   REMARKS
HAVRE          FOG       28  27  96 E6        29.55F VSB 1/2  WCI  21
LEWISTOWN      MOCLDY    50  30  46 W18       29.62F
* N BAR RANCH  CLEAR     52  28  40 W12       29.62F
* CHESTER      N/A       17  14  88 NE1        N/A
* DENTON       N/A       41  30  65 SW9        N/A
* GEYSER       N/A       46  26  46 NW6        N/A
* JUDITH GAP   N/A       50  26  39 N/A        N/A
* LOMA         N/A       49  36  61 S12G17     N/A
$$

MTZ017>020-022>027-061-062-281300-
NORTHEAST MONTANA
CITY           SKY/WX    TMP DP  RH WIND       PRES   REMARKS
GLASGOW        PTCLDY    18  16  92 E13       29.62F WCI   5
GLENDIVE       CLOUDY    25  21  85 NE3       29.64F
JORDAN         CLOUDY    30  28  92 CALM      29.60F
SIDNEY         MOCLDY    21  18  88 CALM      29.70S
WOLF POINT     CLOUDY    19  16  88 E12       29.68F WCI   6
* BEAVER HILL  N/A       38  32  79 S13        N/A   WCI  30
* CIRCLE       N/A       25  23  92 NE3G8      N/A
* LINDSAY DVD  N/A       46  35  66 SW14       N/A
* NAVAJO       N/A       12  10  92 E8         N/A
* SACO         N/A       22  20  92 E9         N/A   WCI  12
$$

MTZ028>042-056>058-281300-
SOUTHCENTRAL AND SOUTHEAST MONTANA
CITY           SKY/WX    TMP DP  RH WIND       PRES   REMARKS
BAKER          CLOUDY    41  30  65 W8        29.66F
BILLINGS       CLOUDY    46  30  54 SW10      29.67F
LIVINGSTON     CLOUDY    54  25  33 SW26G33   29.69F
MILES CITY     CLOUDY    37  32  82 S8        29.64F WCI  31
* LAUREL APT   CLOUDY    45  23  42 N/A        N/A
* ALZADA       N/A       40  30  68 NW2        N/A
* HYSHAM       N/A       51  25  36 W6         N/A
* LAME DEER    N/A       49  28  44 W10        N/A
* REED POINT   N/A       53  27  37 W4G19      N/A
* ROSCOE HILL  N/A       51  13  22 SW23G45    N/A
$$

REGIONAL REPORTS...DAKOTAS
CITY           SKY/WX    TMP DP  RH WIND       PRES   REMARKS
WILLISTON      CLOUDY    18  12  77 E9        29.72F WCI   7
DICKINSON      CLOUDY    19  16  88 E6        29.64F WCI  11
BEACH          PTCLDY    28  28 100 SE7       29.63F WCI  21
CROSBY         CLOUDY     9   7  91 E18       29.79R WCI  -9
BISMARCK       CLOUDY    10   7  88 E13       29.79F WCI  -5
GRAND FORKS    CLOUDY    12   7  80 SE7       30.00F WCI   1
FARGO          CLOUDY    12   5  73 SE9       29.99F
BUFFALO SD     CLOUDY    39  28  65 SW7       29.61S WCI  34
RAPID CITY     PTCLDY    39  27  62 SE5       29.69F WCI  35
$$

REGIONAL REPORTS...WYOMING/IDAHO/WASHINGTON
CITY           SKY/WX    TMP DP  RH WIND       PRES   REMARKS
GILLETTE       CLOUDY    46  28  50 SW21      29.73S
SHERIDAN       MOCLDY    54  25  33 W9G32     29.70F
CODY           MOCLDY    50  25  38 W28G44    29.71F
YELLOWSTONE LA CLOUDY    37  19  48 VRB7      29.96F WCI  32
SALMON         CLOUDY    48  30  50 SW9G17    29.79F
MULLAN PASS    CLOUDY    36  36 100 SW15G30   29.65S WCI  27
SAND POINT     CLOUDY    50  41  71 SW15G23   29.58F
SPOKANE        PTCLDY    46  41  83 SW22      29.61F

$$




USA.gov is the U.S. government's official web portal to all federal, state and local government web resources and services.